Regional Weather Roundup
Issued by NWS Mt. Holly, NJ

Home | Current Version | Previous Version | Text Only | Print | Product List | Glossary On
Versions: 1 2 3 4 5 6 7 8 9 10 11 12 13 14 15 16 17 18 19 20 21 22 23 24 25 26 27 28 29 30 31 32 33 34 35 36 37 38 39 40 41 42 43 44 45 46 47 48 49 50
000
ASUS41 KPHI 021910
RWRPHI

REGIONAL WEATHER ROUNDUP
NATIONAL WEATHER SERVICE MOUNT HOLLY NJ
300 PM EDT TUE SEP 02 2014

NOTE:  "FAIR" INDICATES FEW OR NO CLOUDS BELOW 12,000 FEET WITH NO
SIGNIFICANT WEATHER AND/OR OBSTRUCTIONS TO VISIBILITY.

 * = STATION DOES NOT REPORT PRECIPITATION (E.G. RAIN, SNOW, ETC.)
        OR FOG.

NJZ015>026-022000-
SOUTHERN NEW JERSEY

CITY           SKY/WX    TMP DP  RH WIND       PRES   REMARKS
POMONA         SUNNY     91  70  49 SW10      29.89F HX  96
RIO GRANDE*    SUNNY     91  68  46 W8        29.92F HX  95
MILLVILLE      SUNNY     91  70  49 W8G16     29.90F HX  96
WRIGHTSTOWN    MOSUNNY   91  73  54 SW13      29.85F HX  99
MOUNT HOLLY    MOSUNNY   90  71  53 SW9       29.87F HX  96
TRENTON        MOSUNNY   90  69  50 SW8       29.87F HX  94

$$
NJZ001>014-022000-
NORTHERN NEW JERSEY

CITY           SKY/WX    TMP DP  RH WIND       PRES   REMARKS
SUSSEX         MOSUNNY   89  69  51 VRB7      29.85F HX  93
ANDOVER*         N/A     86  69  56 SW10      29.87F HX  90
MORRISTOWN     PTSUNNY   90  68  48 SW12G18   29.85F HX  93
NEWARK         PTSUNNY   94  67  41 SW13      29.84F HX  97
TETERBORO      SUNNY     93  67  41 W12G20    29.82F HX  96
CALDWELL       MOSUNNY   90  67  46 SW10      29.85F HX  93
ALLAIRE*       MOSUNNY   90  72  55 W10G17    29.88F HX  96
TOMS RIVER*    MOSUNNY   93  70  46 SW12      29.88F HX  99

$$
PAZ043-044-047-054-055-060>062-066>071-022000-
EASTERN PENNSYLVANIA

CITY           SKY/WX    TMP DP  RH WIND       PRES   REMARKS
PHILADELPHIA   PTSUNNY   93  69  45 SW13      29.89F HX  98
NORTH PHILA    MOSUNNY   92  66  42 W10       29.89F HX  94
BLUE BELL      SUNNY     90  68  48 SW12G18   29.89F HX  93
DOYLESTOWN     MOSUNNY   89  68  49 SW8G18    29.88F HX  93
QUAKERTOWN*    MOSUNNY   88  70  55 MISG      29.91F HX  92
POTTSTOWN      MOSUNNY   88  67  49 W8G18     29.90F HX  91
LANCASTER      PTSUNNY   88  68  51 W9        29.90F HX  91
COATESVILLE    MOSUNNY   86  72  62 W3        29.93F HAZE    HX  92
READING        MOSUNNY   90  67  46 W15G21    29.88F HX  93
ALLENTOWN      MOSUNNY   90  67  46 SW15G22   29.88F HX  93
MOUNT POCONO   MOSUNNY   82  63  52 W12       29.95F
HAZLETON       MOSUNNY   82  68  61 S5        29.97F
WILKES BARRE   SUNNY     87  65  47 W14G21    29.88F

$$
DEZALL-MDZ008-012-015-019-020-022000-
DELAWARE AND EASTERN MARYLAND

CITY           SKY/WX    TMP DP  RH WIND       PRES   REMARKS
WILMINGTON     SUNNY     91  71  51 SW12      29.90F HX  97
DOVER          SUNNY     93  71  48 W8        29.90F HX  99
GEORGETOWN     SUNNY     93  68  43 SE10      29.92F HX  97
EASTON         MOSUNNY   93  68  43 SW6       29.95F HX  97
PATUXENT       MOSUNNY   93  72  50 E10       29.91F HX 101
OCEAN CITY     SUNNY     90  75  61 SW9       29.92F HX 100
WALLOPS ISLAND MOSUNNY   92  77  61 S10       29.94F HX 105
CAMBRIDGE      MOSUNNY   91  64  40 CALM      29.92F HX  93
SALISBURY      SUNNY     96  67  38 W9        29.92F HX 100

$$
PAZ001-021-NYZ056-072-MDZ011-DCZ001-022000-
OTHER NEARBY LOCATIONS

CITY           SKY/WX    TMP DP  RH WIND       PRES   REMARKS
HARRISBURG     PTSUNNY   90  69  50 W9        29.88F HX  94
STATE COLLEGE  PTSUNNY   82  68  61 SW14      29.90F
WILLIAMSPORT   MOSUNNY   87  65  47 SW7       29.85F
BINGHAMTON     MOSUNNY   82  66  58 SW12      29.89F
NEW YORK CITY  MOSUNNY   92  68  45 VRB3      29.86F HX  96
BALTIMORE      MOSUNNY   90  69  50 VRB3      29.90F HX  94
WASHINGTON DC  MOSUNNY   93  70  46 S13       29.91F HX  99

$$



USA.gov is the U.S. government's official web portal to all federal, state and local government web resources and services.